Regional Weather Roundup
Issued by NWS

Home | Current Version | Previous Version | Text Only | Print | Product List | Glossary On
Versions: 1 2 3 4 5 6 7 8 9 10 11 12 13 14 15 16 17 18 19 20 21 22 23 24 25 26 27 28 29 30 31 32 33 34 35 36 37 38 39 40 41 42 43 44 45 46 47 48 49 50
000
ASUS46 KSEW 300810
RWRWA

WASHINGTON REGIONAL WEATHER ROUNDUP
NATIONAL WEATHER SERVICE SEATTLE WA
1200 AM PST FRI JAN 30 2015

NOTE:"FAIR" INDICATES FEW OR NO CLOUDS BELOW 12,000 FEET WITH NO
SIGNIFICANT WEATHER AND/OR OBSTRUCTIONS TO VISIBILITY.

WAZ505-507>509-300900-
SEATTLE, TACOMA, EVERETT, AND VICINITY

CITY           SKY/WX    TMP DP  RH WIND       PRES   REMARKS
EVERETT        FOG       40  39  97 N3        30.30F VSB 1/4
BOEING FIELD   CLEAR     43  36  76 CALM      30.31S
RENTON         CLEAR     38  37  97 CALM      30.31R
SEATAC AIRPORT CLEAR     41  36  82 N5        30.30S
JBLM-MCCHORD   NOT AVBL
PUYALLUP       FAIR      32  32 100 CALM      30.30R FOG
BREMERTON        N/A     34  34 100 CALM      30.33R
JBLM-FT LEWIS  CLEAR     34  34  99 CALM      30.30S FOG
TACOMA NARROWS CLEAR     40  37  89 CALM      30.30S
$$

WAZ001-503-506-510-514-515-300900-
NORTH INTERIOR

CITY           SKY/WX    TMP DP  RH WIND       PRES   REMARKS
BELLINGHAM     PTCLDY    34  32  92 CALM      30.33R
FRIDAY HARBOR  PTCLDY    40  39  97 CALM      30.33S
EASTSOUND      PTCLDY    43  43 100 CALM      30.32S
PORT ANGELES   CLEAR     34  32  92 CALM      30.32R
NAS WHIDBEY    PTCLDY    40  36  86 CALM      30.33S
ARLINGTON      MOCLDY    30  27  86 CALM      30.32F VSB 1/2
BURLINGTON     CLEAR     37 N/A N/A N3        30.33S
$$

WAZ020-022-039-040-504-511-512-300900-
SOUTHWEST INTERIOR

CITY           SKY/WX    TMP DP  RH WIND       PRES   REMARKS
SHELTON        FOG       30  29  96 CALM      30.29S VSB 1/4
OLYMPIA        FOG       33  32  96 CALM      30.31S VSB 1/2
CHEHALIS       FOG       39  39 100 CALM      30.31R VSB 1/4
KELSO          CLOUDY    39  37  93 CALM      30.34R
VANCOUVER      CLEAR     35  32  88 CALM      30.30R
SCAPPOOSE, OR  PTCLDY    35  34  96 N3        30.29S FOG
PORTLAND, OR   CLEAR     41  36  82 CALM      30.30S
$$

WAZ021-516-517-300900-
WASHINGTON COAST

CITY           SKY/WX    TMP DP  RH WIND       PRES   REMARKS
FORKS          CLEAR     37  37 100 CALM      30.30R
HOQUIAM        CLEAR     41  39  93 E3        30.29S FOG
ASTORIA, OR    CLEAR     40  38  93 CALM      30.26R
$$

WAZ019-023-024-040-518-519-300900-
CASCADE MOUNTAINS AND COLUMBIA GORGE

CITY           SKY/WX    TMP DP  RH WIND       PRES   REMARKS
TROUTDALE, OR  CLEAR     43  34  70 E17G30    30.28S
THE DALLES, OR CLOUDY    40  35  83 E6        30.46R
$$

WAZ026-027-041>044-520-521-300900-
EAST SLOPES

CITY           SKY/WX    TMP DP  RH WIND       PRES   REMARKS
OMAK           CLOUDY    35  31  85 W3        30.43F
WENATCHEE      CLOUDY    36  31  82 NW5       30.43S
ELLENSBURG     CLOUDY    35  31  85 CALM      30.40S
YAKIMA         CLOUDY    38  34  85 E3        30.43S
$$

WAZ028-034-035-300900-
COLUMBIA BASIN

CITY           SKY/WX    TMP DP  RH WIND       PRES   REMARKS
EPHRATA        CLOUDY    37  35  92 CALM      30.40F
MOSES LAKE     CLOUDY    36  34  92 S3        30.42S
PASCO          CLOUDY    38  37  97 NW3       30.46S
HERMISTON, OR  CLOUDY    38  36  92 CALM      30.44S FOG
$$

WAZ036>038-300900-
NORTHEAST WASHINGTON

CITY           SKY/WX    TMP DP  RH WIND       PRES   REMARKS
SPOKANE GEIGER FOG       27  26  96 N3        30.37S VSB 1/4
SPOKANE FELTS  FOG       29  27  92 CALM      30.40R VSB 1
FAIRCHILD AFB  FOG       28  28 100 N6        30.36S VSB 1/4
COEURDALENE,ID CLOUDY    30  28  93 NE6       30.36F
DEER PARK      CLEAR     23  21  92 N3        30.39S
$$

WAZ029>033-300900-
SOUTHEAST WASHINGTON

CITY           SKY/WX    TMP DP  RH WIND       PRES   REMARKS
PULLMAN        FOG       32  31  96 CALM      30.36S VSB 1/4
LEWISTON, ID   CLOUDY    38  35  89 NE7       30.39R
WALLA WALLA    CLOUDY    36  34  92 S3        30.42S FOG
PENDLETON, OR  CLOUDY    35  32  88 NE3       30.40R FOG
$$


USA.gov is the U.S. government's official web portal to all federal, state and local government web resources and services.